Regional Weather Roundup
Issued by NWS Cleveland, OH

Home | Current Version | Previous Version | Text Only | Print | Product List | Glossary Off
Versions: 1 2 3 4 5 6 7 8 9 10 11 12 13 14 15 16 17 18 19 20 21 22 23 24 25 26 27 28 29 30 31 32 33 34 35 36 37 38 39 40 41 42 43 44 45 46 47 48 49 50

000
ASUS41 KCLE 031602
RWRCLE
OHIO REGIONAL WEATHER ROUNDUP
NATIONAL WEATHER SERVICE CLEVELAND, OH
1200 PM EDT WED JUN 03 2015

NOTE: "FAIR" INDICATES FEW OR NO CLOUDS BELOW 12,000 FEET WITH NO
SIGNIFICANT WEATHER AND/OR OBSTRUCTIONS TO VISIBILITY.

OHZ001>008-015>018-024>027-034-035-043-044-031700-
   NORTHWEST OHIO

CITY           SKY/WX    TMP DP  RH WIND       PRES   REMARKS
DEFIANCE       PTSUNNY   69  55  60 NE7       30.11F
FINDLAY        MOSUNNY   69  56  62 E8        30.09F
TOLEDO EXPRESS MOSUNNY   69  53  56 E12       30.11F
TOLEDO EXEC    SUNNY     70  50  49 E12       30.12F
LIMA           CLOUDY    65  57  75 SE6       30.10F
$$

OHZ009>014-019>023-028>033-038-089-031700-
   NORTHEAST OHIO

CITY           SKY/WX    TMP DP  RH WIND       PRES   REMARKS
CLE-HOPKINS    MOSUNNY   69  53  56 N15       30.13S
CLE-LAKEFRONT  SUNNY     62  55  77 NE15      30.12S
CUY CO. ARPT   SUNNY     70 N/A N/A SE9       30.13F
LORAIN-ELYRIA  SUNNY     68  50  52 SE5       30.12F
ASHTABULA      SUNNY     66  52  60 SE9G18    30.15F
AKRON-CANTON   PTSUNNY   66  55  67 E10       30.12F
WOOSTER        MOSUNNY   66  58  75 E8        30.12F
MANSFIELD      PTSUNNY   64  56  75 E9        30.12S
YOUNGSTOWN     MOSUNNY   67  55  65 E12       30.14F
$$

OHZ042-051>053-060>062-070>072-077>081-031700-
  SOUTHWEST OHIO

CITY           SKY/WX    TMP DP  RH WIND       PRES   REMARKS
CINC-COVINGTON PTSUNNY   66  55  67 NE3       30.08S
CINC-LUNKEN    CLOUDY    68  58  70 NE6       30.08F
HAMILTON       CLOUDY    66  57  72 CALM      30.09F
DAYTON         CLOUDY    66  58  75 E5        30.10S
WRIGHT-PAT AFB PTSUNNY   66  57  72 E2        30.09S
DAYTON GENERAL CLOUDY    65  57  75 E6        30.08F
WILMINGTON     CLOUDY    66  56  70 MISG      30.08S
$$

OHZ036-037-039>041-045>050-054>059-063>069-073>076-082>088-031700-
  CENTRAL AND SOUTHEAST OHIO

CITY           SKY/WX    TMP DP  RH WIND       PRES   REMARKS
COLUMBUS       CLOUDY    67  57  70 NE5       30.08F
OSU AIRPORT    CLOUDY    67  56  67 E6        30.09S
BOLTON FIELD   CLOUDY    66  57  72 CALM      30.09S
RICKENBACK AFB CLOUDY    67  58  72 NE3       30.08S
NEWARK         CLOUDY    67  57  70 E6        30.09S
MARION         CLOUDY    67  55  65 E7        30.11S
LANCASTER      CLOUDY    68  58  70 E6        30.09S
ZANESVILLE     NOT AVBL
NEW PHILLY     CLOUDY    70  56  61 NE7       30.11F
$$


USA.gov is the U.S. government's official web portal to all federal, state and local government web resources and services.